TimeMST,TemperatureF,Dew PointF,Humidity,Sea Level PressureIn,VisibilityMPH,Wind Direction,Wind SpeedMPH,Gust SpeedMPH,PrecipitationIn,Events,Conditions,WindDirDegrees,DateUTC
12:15 AM,26.1,13.6,59,29.96,10.0,NNW,5.8,-,N/A,,Clear,330,2013-01-08 07:15:00
12:35 AM,23.4,12.7,64,29.96,10.0,NNW,9.2,-,N/A,,Clear,340,2013-01-08 07:35:00
12:55 AM,27.5,16.3,63,29.96,10.0,NNW,11.5,-,N/A,,Clear,330,2013-01-08 07:55:00
1:15 AM,28.9,16.2,59,29.97,10.0,NNW,11.5,-,N/A,,Clear,340,2013-01-08 08:15:00
1:35 AM,26.6,15.6,63,29.98,10.0,North,11.5,-,N/A,,Clear,350,2013-01-08 08:35:00
1:55 AM,28.0,16.5,62,29.99,10.0,North,10.4,-,N/A,,Clear,350,2013-01-08 08:55:00
2:15 AM,27.7,16.9,64,29.99,10.0,North,10.4,-,N/A,,Clear,360,2013-01-08 09:15:00
2:35 AM,29.7,18.5,63,29.99,10.0,North,9.2,-,N/A,,Clear,350,2013-01-08 09:35:00
2:55 AM,27.1,17.6,67,29.99,10.0,North,5.8,-,N/A,,Clear,350,2013-01-08 09:55:00
3:15 AM,26.6,17.2,68,29.98,10.0,NNW,10.4,-,N/A,,Clear,340,2013-01-08 10:15:00
3:35 AM,24.4,16.5,72,29.97,10.0,NNW,12.7,-,N/A,,Clear,330,2013-01-08 10:35:00
3:55 AM,26.6,17.2,68,29.95,10.0,NNW,11.5,-,N/A,,Clear,330,2013-01-08 10:55:00
4:15 AM,23.7,16.2,73,29.96,10.0,North,3.5,-,N/A,,Clear,10,2013-01-08 11:15:00
4:35 AM,22.8,15.3,73,29.96,10.0,North,3.5,-,N/A,,Clear,10,2013-01-08 11:35:00
4:55 AM,23.2,16.0,74,29.97,10.0,North,6.9,-,N/A,,Clear,10,2013-01-08 11:55:00
5:15 AM,22.1,14.9,74,29.98,10.0,North,8.1,-,N/A,,Clear,10,2013-01-08 12:15:00
5:35 AM,21.6,14.9,76,29.98,10.0,NNE,5.8,-,N/A,,Clear,30,2013-01-08 12:35:00
5:55 AM,18.3,12.9,79,29.99,10.0,North,5.8,-,N/A,,Clear,360,2013-01-08 12:55:00
6:15 AM,19.4,13.6,78,29.99,10.0,NNW,3.5,-,N/A,,Clear,340,2013-01-08 13:15:00
6:35 AM,-9999,-9999,N/A,30.00,10.0,NW,3.5,-,N/A,,Clear,320,2013-01-08 13:35:00
6:55 AM,17.8,13.5,83,30.01,10.0,NNW,8.1,-,N/A,,Clear,330,2013-01-08 13:55:00
7:15 AM,20.8,15.3,79,30.01,10.0,NNW,5.8,-,N/A,,Clear,340,2013-01-08 14:15:00
7:55 AM,21.7,15.1,76,30.03,10.0,NNW,5.8,-,N/A,,Clear,340,2013-01-08 14:55:00
8:15 AM,24.6,16.0,70,30.04,10.0,NW,5.8,-,N/A,,Clear,320,2013-01-08 15:15:00
8:35 AM,25.5,15.4,66,30.05,10.0,NW,5.8,-,N/A,,Clear,320,2013-01-08 15:35:00
8:55 AM,28.6,16.9,62,30.06,10.0,NNW,4.6,-,N/A,,Clear,340,2013-01-08 15:55:00
9:15 AM,-9999,-9999,N/A,30.08,10.0,NNE,9.2,-,N/A,,Clear,30,2013-01-08 16:15:00
9:35 AM,33.3,16.7,51,30.07,10.0,NNE,8.1,-,N/A,,Clear,20,2013-01-08 16:35:00
9:55 AM,-9999,-9999,N/A,30.07,10.0,NNE,8.1,-,N/A,,Clear,20,2013-01-08 16:55:00
10:15 AM,-9999,-9999,N/A,30.08,10.0,North,5.8,-,N/A,,Clear,10,2013-01-08 17:15:00
10:55 AM,-9999,-9999,N/A,30.05,10.0,North,5.8,-,N/A,,Clear,360,2013-01-08 17:55:00
11:55 AM,44.8,15.3,31,30.02,10.0,NNE,8.1,-,N/A,,Clear,20,2013-01-08 18:55:00
12:15 PM,-9999,-9999,N/A,30.02,10.0,NW,12.7,-,N/A,,Clear,310,2013-01-08 19:15:00
12:55 PM,-9999,-9999,N/A,30.00,10.0,NNE,11.5,16.1,N/A,,Clear,30,2013-01-08 19:55:00
1:15 PM,-9999,-9999,N/A,30.00,10.0,East,8.1,-,N/A,,Clear,80,2013-01-08 20:15:00
1:35 PM,-9999,-9999,N/A,29.99,10.0,East,8.1,-,N/A,,Clear,80,2013-01-08 20:35:00
1:55 PM,-9999,-9999,N/A,30.00,10.0,NE,5.8,-,N/A,,Clear,50,2013-01-08 20:55:00
2:15 PM,-9999,-9999,N/A,30.00,10.0,NNE,12.7,16.1,N/A,,Clear,30,2013-01-08 21:15:00
2:35 PM,-9999,-9999,N/A,30.01,10.0,North,6.9,-,N/A,,Clear,10,2013-01-08 21:35:00
2:55 PM,-9999,-9999,N/A,30.01,10.0,NNE,9.2,-,N/A,,Clear,30,2013-01-08 21:55:00
3:15 PM,53.6,10.2,18,30.02,10.0,North,13.8,18.4,N/A,,Clear,360,2013-01-08 22:15:00
3:35 PM,53.6,9.5,17,30.02,10.0,NNW,10.4,-,N/A,,Clear,330,2013-01-08 22:35:00
3:55 PM,53.6,10.4,18,30.02,10.0,North,9.2,-,N/A,,Clear,10,2013-01-08 22:55:00
4:15 PM,52.0,11.8,20,30.03,10.0,NE,11.5,-,N/A,,Clear,40,2013-01-08 23:15:00
4:35 PM,50.9,11.3,20,30.04,10.0,NNE,10.4,-,N/A,,Clear,30,2013-01-08 23:35:00
4:55 PM,49.3,11.8,22,30.04,10.0,North,9.2,-,N/A,,Clear,10,2013-01-08 23:55:00
5:15 PM,46.4,11.5,24,30.06,10.0,NNE,13.8,-,N/A,,Clear,20,2013-01-09 00:15:00
5:35 PM,44.1,10.2,25,30.07,10.0,NNE,11.5,-,N/A,,Clear,20,2013-01-09 00:35:00
5:55 PM,43.0,10.2,26,30.08,10.0,NNE,10.4,-,N/A,,Clear,30,2013-01-09 00:55:00
6:15 PM,41.2,10.4,28,30.08,10.0,NNE,10.4,-,N/A,,Clear,20,2013-01-09 01:15:00
6:35 PM,36.9,9.1,32,30.10,10.0,West,5.8,-,N/A,,Clear,280,2013-01-09 01:35:00
6:55 PM,38.3,10.2,31,30.11,10.0,North,8.1,-,N/A,,Clear,360,2013-01-09 01:55:00
7:15 PM,39.0,11.5,32,30.12,10.0,NNW,16.1,-,N/A,,Clear,330,2013-01-09 02:15:00
7:35 PM,38.3,12.2,34,30.12,10.0,NNW,9.2,-,N/A,,Clear,330,2013-01-09 02:35:00
7:55 PM,34.3,11.5,39,30.14,10.0,NW,8.1,-,N/A,,Clear,320,2013-01-09 02:55:00
8:15 PM,33.3,12.7,43,30.15,10.0,NW,5.8,-,N/A,,Clear,310,2013-01-09 03:15:00
8:35 PM,30.4,12.2,47,30.16,10.0,NW,8.1,-,N/A,,Clear,310,2013-01-09 03:35:00
8:55 PM,31.8,13.1,46,30.17,10.0,WNW,6.9,-,N/A,,Clear,300,2013-01-09 03:55:00
9:15 PM,30.9,12.9,47,30.18,10.0,NW,9.2,-,N/A,,Clear,320,2013-01-09 04:15:00
9:35 PM,30.7,13.1,48,30.19,10.0,NNW,9.2,-,N/A,,Clear,330,2013-01-09 04:35:00
10:15 PM,31.8,14.0,48,30.21,10.0,North,9.2,-,N/A,,Clear,350,2013-01-09 05:15:00
10:35 PM,30.9,13.8,49,30.23,10.0,NNW,9.2,-,N/A,,Clear,340,2013-01-09 05:35:00
10:55 PM,27.3,12.7,54,30.23,10.0,NW,8.1,-,N/A,,Clear,320,2013-01-09 05:55:00
11:15 PM,28.9,13.6,53,30.24,10.0,NNW,8.1,-,N/A,,Clear,340,2013-01-09 06:15:00
11:35 PM,26.6,12.2,55,30.24,10.0,North,4.6,-,N/A,,Clear,10,2013-01-09 06:35:00
11:55 PM,24.3,11.5,58,30.26,10.0,NNE,3.5,-,N/A,,Clear,20,2013-01-09 06:55:00